Temp
62 62 62 62 62 62 62 62 62 62 62 62 62 62 61 61 61 75 84 86 87 74 74 94 95 95 95 93 94 94 88 85 84 85 87 92 90 90 91 88 88 87 90 91 90
62 62 62 62 61 61 61 61 61 62 61 62 61 61 61 61 77 84 81 75 75 75 94 93 91 94 92 91 93 92 91 84 90 91 90 93 92 90 88 87 86 84 89 90 90
61 61 61 61 61 61 61 61 61 61 61 61 61 61 61 66 82 90 76 75 75 80 98 98 97 94 89 93 91 91 88 89 90 92 92 92 90 92 88 87 89 84 85 88 88
60 61 61 61 61 61 61 61 61 62 61 61 61 61 61 77 78 93 76 75 75 93 96 94 94 90 88 87 91 87 89 91 92 91 91 90 94 88 89 87 92 91 90 89 87
60 60 60 60 60 60 61 61 61 61 60 60 60 61 72 83 88 90 76 78 90 93 93 93 91 92 87 90 89 88 89 91 92 91 92 93 90 90 90 90 93 91 90 89 89
59 59 59 59 60 60 60 60 59 59 59 60 61 60 82 80 94 94 94 91 95 95 95 95 93 95 91 89 89 89 89 91 92 92 91 90 89 89 87 92 90 88 88 89 88
59 59 59 59 59 60 60 59 58 58 59 60 61 72 82 87 95 96 94 95 97 97 93 95 95 92 93 88 90 89 86 89 89 91 89 91 86 87 88 91 88 88 88 88 87
59 58 59 59 59 59 59 58 58 60 61 61 62 78 84 93 97 93 95 94 96 97 95 96 96 93 91 91 89 87 88 81 88 89 88 87 82 88 88 90 87 86 85 86 87
58 58 58 59 59 59 59 57 59 62 62 63 75 81 84 80 88 95 96 93 95 95 95 93 94 90 88 85 83 83 78 82 82 90 88 87 84 84 88 89 88 85 84 86 85
58 58 58 58 58 58 57 57 61 63 70 77 81 77 89 86 91 93 97 95 92 92 88 88 89 86 87 83 71 75 78 83 81 86 88 86 85 85 86 87 88 88 86 86 84
58 58 57 57 58 57 65 81 82 80 85 81 83 81 86 92 94 91 95 92 92 89 82 86 83 79 83 86 84 84 83 81 83 85 85 84 84 85 86 86 86 88 89 88 86
58 58 57 57 58 57 70 82 76 78 72 86 84 84 86 90 83 89 95 86 84 80 83 80 77 87 84 83 82 81 80 80 82 84 84 82 82 84 85 86 87 88 89 89 89
57 57 57 57 57 71 79 79 85 83 73 81 83 82 84 86 82 86 91 89 82 80 80 79 82 84 82 80 78 80 81 80 81 82 84 82 80 81 84 83 85 86 88 88 87
57 57 56 54 69 79 82 83 87 82 71 75 79 84 84 88 81 93 95 89 84 79 82 81 87 81 81 80 83 77 85 84 82 79 74 82 73 80 84 81 82 87 88 91 90
57 57 56 54 71 77 80 86 85 79 56 77 80 92 89 83 82 84 96 89 81 81 81 79 80 79 80 83 86 79 86 83 82 80 78 76 74 79 81 79 82 87 89 90 91
56 57 55 66 74 77 82 83 81 67 54 72 81 79 80 84 81 85 84 91 89 81 83 83 88 85 87 86 87 85 82 80 82 80 68 76 74 78 79 80 83 87 90 91 92
56 55 57 72 76 79 80 77 66 59 75 70 73 78 80 78 78 79 77 77 74 69 71 79 82 86 88 81 85 85 78 68 65 66 67 76 73 78 83 84 84 88 90 92 92
54 53 62 74 80 78 76 71 57 67 68 76 75 76 72 79 79 78 74 74 79 78 77 72 68 81 87 86 81 82 79 73 57 62 70 74 68 78 84 86 87 91 92 93 91
52 78 77 83 78 76 74 63 64 68 71 70 73 70 72 77 76 76 75 73 77 78 72 74 74 84 87 88 89 80 76 82 71 73 68 77 76 81 85 85 88 88 89 89 91
65 72 78 80 76 74 71 61 67 73 72 73 64 71 68 73 72 73 74 79 77 82 84 78 70 82 82 87 85 84 87 72 75 60 58 69 70 79 78 82 86 87 88 90 92
67 68 76 81 77 73 66 69 71 76 75 69 67 67 68 70 73 73 74 79 82 81 85 81 75 74 81 79 79 78 77 77 77 72 65 63 69 81 80 83 84 88 91 92 93
67 64 79 80 69 74 69 70 62 73 75 72 70 71 69 71 71 73 72 77 84 81 75 81 76 70 76 80 84 85 81 79 70 64 71 70 71 84 82 84 84 86 89 91 89
65 68 80 77 64 67 71 70 73 71 71 71 69 71 74 70 65 73 75 80 80 80 79 78 73 66 67 74 78 78 80 80 77 76 67 66 70 85 85 85 85 84 86 87 85
63 63 71 73 74 66 66 68 68 74 71 72 71 71 69 69 74 71 73 76 78 80 64 74 74 71 68 71 79 72 75 79 77 69 70 72 73 78 81 82 84 83 83 86 85
66 64 62 67 67 66 67 67 66 65 71 71 70 70 66 62 69 70 73 75 76 66 76 77 69 73 74 78 79 78 76 76 74 76 70 74 74 78 80 79 80 81 82 83 83
61 62 68 66 62 63 58 65 65 67 66 67 64 69 67 63 65 64 71 74 74 75 75 74 70 73 69 75 77 73 77 77 77 76 75 75 73 81 80 81 79 79 80 80 80
68 67 62 57 62 63 66 65 65 66 70 71 67 64 67 68 67 70 73 71 73 74 72 71 70 68 66 72 73 68 73 75 76 78 77 70 76 79 76 75 76 76 78 78 79
MSLP
1020.69 1020.22 1019.78 1019.40 1018.86 1018.36 1017.93 1017.39 1016.87 1016.45 1016.05 1015.59 1015.18 1014.99 1014.75 1014.35 1013.82 1013.29 1011.15 1010.03 1010.01 1010.52 1010.80 1010.02 1009.47 1008.85 1008.64 1007.72 1007.41 1006.67 1004.18 1003.12 1003.57 1003.48 1004.24 1005.49 1005.63 1007.05 1007.88 1008.42 1009.13 1009.94 1009.84 1011.09 1012.76
1020.69 1020.22 1019.76 1019.22 1018.61 1018.19 1017.67 1017.18 1016.53 1016.15 1015.77 1015.34 1014.99 1014.77 1014.47 1014.07 1012.57 1010.83 1010.04 1010.15 1010.35 1010.40 1009.85 1009.07 1008.37 1008.13 1007.44 1007.09 1006.71 1005.38 1003.51 1003.86 1004.48 1004.49 1004.12 1004.97 1005.33 1006.55 1007.22 1008.12 1009.06 1010.12 1010.86 1011.97 1012.88
1020.75 1020.21 1019.69 1019.03 1018.45 1017.94 1017.37 1016.80 1016.33 1015.92 1015.52 1015.05 1014.68 1014.45 1014.14 1013.56 1011.26 1009.16 1009.98 1010.34 1010.41 1010.32 1009.21 1008.35 1007.96 1007.47 1006.72 1006.55 1006.10 1005.21 1004.01 1004.79 1004.81 1005.09 1005.13 1005.01 1005.67 1006.46 1006.77 1007.07 1008.31 1009.55 1010.84 1011.95 1012.66
1020.68 1020.15 1019.47 1018.88 1018.30 1017.70 1017.05 1016.56 1015.95 1015.58 1015.16 1014.82 1014.44 1014.22 1013.90 1012.62 1009.61 1009.17 1010.05 1010.41 1010.63 1009.77 1009.20 1008.41 1007.72 1006.92 1006.07 1005.70 1005.92 1005.10 1005.21 1005.22 1005.11 1005.50 1005.34 1005.22 1005.53 1006.48 1007.02 1008.05 1008.71 1009.51 1010.66 1011.61 1012.30
1020.71 1020.12 1019.44 1018.84 1018.05 1017.35 1016.73 1016.10 1015.46 1015.08 1014.75 1014.53 1014.16 1013.98 1013.46 1010.90 1008.76 1009.32 1010.05 1010.42 1010.12 1009.63 1008.74 1007.84 1007.05 1006.23 1005.66 1005.59 1005.83 1005.04 1005.29 1005.42 1005.55 1005.71 1005.57 1005.79 1005.87 1006.27 1007.23 1008.47 1009.16 1009.98 1010.79 1011.42 1012.02
1020.57 1020.05 1019.42 1018.61 1017.80 1016.96 1016.39 1015.78 1015.00 1014.52 1014.28 1014.12 1013.91 1014.03 1012.07 1009.53 1008.94 1009.27 1009.48 1009.76 1009.15 1008.98 1008.21 1007.65 1006.76 1006.47 1005.86 1005.69 1005.53 1005.77 1005.60 1005.44 1005.67 1005.61 1005.88 1005.76 1006.24 1006.94 1008.17 1008.63 1009.27 1010.19 1010.75 1011.39 1011.93
1020.46 1019.81 1019.06 1018.25 1017.56 1016.84 1016.02 1015.08 1014.63 1014.09 1013.65 1013.58 1013.71 1013.31 1010.90 1008.91 1008.94 1009.26 1009.51 1009.10 1008.94 1008.52 1007.95 1007.97 1007.46 1006.90 1006.12 1005.92 1006.43 1005.98 1005.49 1005.60 1005.71 1005.86 1005.92 1006.07 1006.10 1006.48 1008.16 1008.48 1009.26 1009.95 1010.82 1011.50 1012.03
1020.27 1019.65 1018.90 1018.02 1017.15 1016.49 1015.76 1015.03 1014.34 1013.69 1013.29 1013.48 1013.57 1012.52 1009.21 1008.97 1008.96 1009.10 1009.20 1008.93 1009.02 1008.88 1008.38 1008.26 1007.97 1007.05 1006.33 1006.48 1006.23 1005.49 1005.18 1004.74 1005.46 1005.84 1006.30 1006.41 1005.14 1006.56 1007.92 1008.23 1008.95 1009.89 1010.82 1011.45 1011.90
1020.18 1019.39 1018.46 1017.68 1016.78 1015.98 1015.30 1014.58 1014.21 1013.73 1013.50 1013.40 1012.80 1011.31 1008.40 1009.49 1008.72 1008.42 1008.73 1008.22 1008.54 1008.69 1008.60 1008.71 1007.92 1006.88 1006.73 1005.69 1005.23 1005.27 1004.22 1004.06 1005.24 1005.74 1005.66 1005.89 1005.08 1007.04 1007.77 1007.95 1008.54 1009.69 1010.72 1011.19 1011.77
1020.18 1019.27 1018.41 1017.60 1016.55 1015.63 1014.79 1014.23 1013.88 1013.76 1013.33 1012.46 1011.72 1010.79 1008.25 1007.77 1007.86 1008.23 1008.61 1008.28 1007.98 1008.10 1008.24 1008.15 1007.20 1006.34 1005.73 1005.05 1003.97 1004.11 1003.84 1004.05 1004.46 1005.39 1005.49 1005.40 1005.43 1006.80 1007.64 1007.89 1008.16 1008.88 1009.99 1010.51 1011.36
1019.98 1019.31 1018.39 1017.47 1016.26 1015.30 1013.98 1013.08 1013.00 1012.30 1010.87 1009.96 1009.30 1008.84 1007.69 1007.67 1007.85 1007.81 1008.04 1007.99 1007.63 1007.48 1006.83 1007.09 1006.11 1005.11 1004.73 1004.62 1004.27 1003.90 1003.61 1003.91 1004.67 1005.55 1005.17 1005.18 1005.58 1006.39 1007.27 1007.77 1008.01 1008.46 1008.97 1009.64 1010.46
1019.82 1019.12 1018.31 1017.27 1016.22 1014.96 1014.49 1012.46 1013.49 1013.67 1011.04 1008.82 1008.72 1008.38 1008.28 1007.85 1007.19 1007.22 1007.77 1007.39 1007.16 1006.49 1006.72 1006.70 1005.46 1004.54 1005.25 1005.19 1005.03 1004.61 1003.94 1003.93 1005.17 1005.55 1005.59 1005.57 1005.47 1006.39 1007.00 1007.20 1007.59 1007.91 1008.24 1008.83 1009.46
1019.88 1019.11 1018.23 1017.05 1015.83 1014.65 1013.91 1013.30 1013.41 1013.16 1011.24 1007.89 1007.72 1007.36 1007.25 1007.71 1006.88 1006.50 1007.15 1006.72 1006.56 1006.12 1006.04 1005.17 1004.56 1005.30 1005.20 1005.16 1004.87 1004.38 1003.69 1003.74 1004.10 1005.44 1005.65 1005.50 1005.28 1005.95 1006.77 1007.49 1007.80 1008.15 1008.22 1008.56 1009.05
1019.69 1019.13 1018.45 1017.21 1015.48 1014.83 1013.40 1013.52 1013.16 1012.99 1010.08 1007.19 1006.68 1006.11 1006.88 1006.64 1006.35 1006.02 1006.52 1006.45 1006.12 1005.67 1005.45 1005.04 1004.83 1005.09 1004.78 1004.21 1004.17 1003.56 1003.95 1003.95 1004.15 1004.76 1004.35 1005.44 1003.85 1004.83 1005.72 1006.80 1007.35 1007.29 1007.53 1007.68 1008.48
1019.58 1019.29 1018.79 1018.57 1016.59 1014.67 1014.07 1013.56 1013.13 1012.68 1008.77 1006.75 1006.02 1006.06 1005.89 1005.92 1005.86 1006.18 1006.14 1006.16 1005.44 1005.32 1005.51 1004.15 1004.46 1004.46 1003.91 1003.42 1003.77 1003.61 1004.13 1004.23 1004.59 1004.40 1004.58 1005.20 1004.92 1004.28 1005.54 1005.98 1006.41 1006.76 1007.03 1007.34 1008.13
1019.27 1019.01 1018.79 1017.41 1016.08 1014.85 1014.48 1013.69 1012.78 1011.06 1007.75 1006.20 1005.63 1005.44 1005.50 1005.58 1005.85 1005.92 1006.28 1006.28 1005.73 1005.35 1005.00 1004.13 1004.41 1004.01 1003.05 1003.68 1003.69 1004.38 1004.44 1004.76 1004.78 1004.60 1004.57 1004.27 1004.94 1003.26 1004.34 1005.40 1005.66 1006.19 1006.67 1007.06 1007.54
1018.95 1018.34 1018.35 1016.81 1014.68 1014.81 1014.49 1012.83 1011.00 1009.05 1007.34 1006.29 1005.67 1005.41 1004.87 1004.91 1005.23 1005.59 1005.72 1005.74 1005.32 1005.04 1004.25 1004.02 1003.78 1003.66 1003.69 1003.63 1004.15 1003.80 1003.99 1004.12 1004.29 1004.35 1004.05 1004.76 1004.99 1003.54 1004.62 1005.35 1005.66 1005.51 1006.10 1006.83 1007.54
1018.68 1017.71 1016.32 1015.55 1014.87 1014.73 1013.94 1011.87 1009.81 1008.22 1007.49 1006.68 1006.18 1005.70 1005.15 1004.58 1004.74 1005.22 1005.32 1005.01 1005.24 1004.72 1003.33 1002.99 1003.16 1003.11 1003.13 1002.36 1002.79 1003.09 1003.37 1002.73 1003.37 1003.47 1003.64 1005.18 1004.43 1003.98 1004.97 1005.48 1005.67 1005.51 1006.06 1006.67 1007.33
1018.27 1015.78 1014.85 1014.14 1014.71 1014.64 1012.99 1010.21 1008.47 1007.94 1007.83 1007.18 1006.25 1005.22 1004.82 1004.52 1004.66 1004.77 1004.76 1004.59 1004.73 1004.85 1003.57 1002.49 1002.27 1003.10 1002.84 1002.78 1002.49 1003.11 1003.36 1003.69 1003.72 1004.29 1004.24 1003.51 1004.35 1004.87 1005.10 1005.21 1005.48 1005.80 1006.18 1006.64 1007.01
1018.18 1015.87 1013.78 1014.09 1014.46 1013.84 1011.79 1009.32 1008.86 1008.55 1008.04 1007.54 1006.71 1005.93 1004.63 1004.37 1004.68 1004.42 1004.14 1004.25 1004.27 1004.31 1004.17 1003.19 1002.68 1002.96 1003.33 1003.25 1003.50 1002.92 1003.36 1003.93 1004.02 1003.69 1003.89 1003.63 1004.13 1003.40 1004.84 1005.05 1005.32 1005.65 1006.03 1006.41 1006.75
1017.89 1015.22 1013.73 1013.93 1013.98 1012.41 1009.92 1008.71 1008.80 1008.58 1008.36 1008.20 1007.28 1006.70 1005.92 1004.78 1004.34 1003.98 1003.85 1003.99 1003.94 1003.97 1004.09 1003.64 1003.17 1003.51 1003.38 1002.90 1002.62 1003.72 1003.50 1003.94 1004.04 1004.52 1003.75 1003.79 1003.69 1004.68 1005.28 1005.57 1005.53 1005.46 1005.66 1006.00 1006.38
1017.33 1014.25 1013.48 1013.53 1012.20 1010.58 1009.26 1009.15 1009.24 1008.51 1008.55 1008.26 1007.94 1007.31 1006.57 1005.59 1004.55 1004.06 1003.69 1003.67 1003.90 1004.30 1004.11 1004.02 1003.57 1003.14 1003.00 1003.53 1003.34 1002.75 1002.68 1003.71 1003.60 1004.51 1004.66 1004.44 1004.39 1005.50 1005.97 1006.01 1006.31 1006.32 1006.35 1006.51 1007.20
1016.43 1014.19 1013.16 1012.92 1010.76 1009.74 1009.40 1009.22 1008.89 1008.63 1008.39 1007.89 1007.76 1007.63 1007.10 1006.22 1005.45 1004.49 1004.06 1004.25 1004.48 1004.39 1003.83 1004.33 1003.92 1003.46 1003.87 1004.25 1004.19 1003.49 1003.68 1003.80 1004.27 1004.46 1004.88 1004.42 1004.46 1005.55 1006.11 1006.21 1006.69 1006.91 1007.14 1007.26 1007.67
1016.93 1013.82 1012.37 1012.04 1011.43 1010.49 1009.39 1008.88 1008.62 1008.65 1008.62 1008.64 1008.07 1007.94 1007.54 1006.47 1005.68 1004.85 1004.34 1004.75 1004.99 1004.80 1004.88 1004.51 1004.08 1003.39 1002.69 1002.63 1002.95 1003.61 1003.84 1003.94 1004.04 1004.22 1004.16 1004.61 1004.83 1005.77 1006.25 1006.64 1006.98 1007.61 1007.89 1007.79 1008.06
1016.64 1014.41 1014.30 1011.49 1011.24 1010.86 1010.38 1009.63 1008.80 1008.56 1008.69 1008.62 1007.96 1008.02 1007.70 1007.33 1006.12 1005.41 1005.16 1005.01 1005.19 1005.44 1005.19 1004.93 1004.33 1004.07 1003.59 1002.88 1002.93 1003.12 1003.59 1003.94 1003.99 1004.07 1004.57 1004.49 1005.27 1005.78 1006.97 1007.57 1008.10 1008.43 1008.49 1008.64 1008.89
1016.71 1015.42 1014.49 1013.13 1012.43 1011.54 1010.93 1009.80 1009.29 1009.05 1009.14 1008.50 1008.84 1008.49 1008.41 1008.08 1007.92 1006.99 1006.21 1005.55 1004.90 1005.41 1005.22 1005.42 1004.40 1004.34 1004.22 1004.09 1003.72 1003.73 1003.96 1004.11 1004.19 1004.64 1005.08 1005.49 1005.88 1007.17 1008.04 1008.46 1008.77 1009.14 1009.03 1009.31 1009.75
1017.44 1016.90 1015.81 1013.39 1012.23 1011.46 1010.32 1010.15 1009.73 1009.98 1009.22 1009.23 1009.20 1009.05 1008.56 1008.18 1008.79 1008.02 1007.57 1006.88 1006.18 1005.46 1005.29 1005.12 1004.73 1004.66 1004.04 1004.48 1004.21 1004.17 1004.22 1004.40 1004.76 1005.10 1005.35 1005.86 1006.52 1007.77 1008.50 1009.08 1009.52 1009.83 1009.92 1010.08 1010.42
Wind_Speed
15 15 14 15 16 16 17 17 17 16 15 15 13 11 10 11 15 8 7 3 5 12 7 11 11 9 7 5 5 4 7 6 9 7 10 10 8 4 5 10 6 5 8 18 18
16 16 16 15 16 17 18 17 17 16 15 14 13 11 9 8 9 7 5 4 5 13 11 15 13 10 6 5 5 9 3 6 3 4 4 8 4 10 7 9 11 11 11 19 17
16 17 17 17 17 17 18 19 18 17 15 15 13 11 9 10 8 8 7 7 8 9 8 6 8 9 6 6 5 3 7 4 6 1 2 6 5 4 4 7 8 13 19 20 18
16 18 18 19 19 18 19 20 18 19 16 15 12 11 9 5 0 6 7 9 6 7 10 10 10 11 8 8 3 7 3 2 6 4 3 7 3 5 2 8 6 14 21 20 18
17 18 19 19 20 20 20 21 20 20 17 14 11 10 10 6 4 7 8 7 10 8 10 10 12 10 10 7 4 3 4 3 4 3 2 5 5 3 10 7 11 16 19 18 16
16 17 18 19 21 21 22 21 21 19 16 12 9 9 7 6 4 8 11 9 9 12 9 7 7 4 7 6 5 2 2 4 3 5 5 5 4 5 8 9 15 16 17 15 14
17 19 19 20 21 22 23 23 21 19 13 9 7 7 6 5 2 7 9 8 7 7 6 2 1 9 5 10 4 3 9 7 6 7 5 3 9 6 6 7 13 14 13 14 12
18 19 20 21 22 23 23 22 20 12 1 7 6 8 3 3 1 8 9 7 7 5 3 0 3 2 6 3 8 9 8 12 9 7 5 6 10 14 4 10 13 13 11 11 12
18 20 22 23 23 24 23 20 12 3 2 6 6 7 5 4 6 9 10 8 10 6 3 1 5 2 6 11 11 9 11 12 10 7 4 9 7 7 5 6 11 12 11 11 10
18 20 22 23 24 24 25 11 4 5 7 6 4 7 6 3 5 7 9 6 9 9 7 7 7 9 9 9 11 12 12 14 13 9 9 9 4 5 6 6 10 11 11 11 11
19 20 22 24 26 26 15 6 5 7 7 8 5 7 3 0 5 8 9 9 8 11 12 11 11 14 15 16 6 6 14 16 7 4 7 3 2 5 4 6 8 10 11 11 9
20 21 23 25 25 22 9 5 6 7 11 7 11 11 9 0 6 11 9 12 10 13 7 8 14 9 3 7 8 8 12 10 7 4 8 6 6 3 4 4 5 6 6 5 7
18 21 23 27 26 8 6 7 6 8 9 5 4 6 6 11 7 16 15 14 11 13 14 13 9 9 11 11 11 11 13 14 14 9 2 7 9 9 6 6 7 8 5 3 4
18 19 21 30 6 11 2 4 11 3 7 6 5 6 8 7 9 11 18 12 9 14 12 11 11 10 11 15 14 11 8 12 13 15 9 6 2 9 9 8 8 8 7 4 3
18 18 16 13 11 7 8 10 9 5 7 4 5 4 10 11 10 11 15 11 13 11 8 8 13 13 14 13 13 6 11 12 14 11 5 11 9 8 5 10 12 11 7 4 4
19 18 17 5 5 9 11 13 3 8 5 1 3 8 12 13 8 9 13 11 5 7 12 4 1 5 7 5 6 14 14 8 8 6 10 5 8 5 7 1 3 12 8 6 7
21 23 15 6 7 7 11 4 7 8 2 2 3 2 14 11 9 11 16 17 10 11 13 11 13 6 9 14 14 11 15 8 9 8 7 7 7 9 3 2 5 10 11 10 9
21 26 3 7 7 8 8 6 10 1 6 3 5 8 11 11 14 12 13 15 15 11 10 14 13 14 12 13 12 16 15 5 8 8 5 8 7 4 3 1 6 7 13 11 10
25 6 6 2 5 3 8 10 4 5 3 7 9 7 12 13 5 12 13 15 16 13 7 11 12 6 8 6 12 10 11 5 5 2 9 5 6 5 2 6 12 12 10 11 11
9 8 6 4 4 6 10 11 4 2 1 4 4 3 6 14 13 15 12 13 16 13 13 2 8 8 9 10 5 6 8 7 8 6 9 6 5 2 9 7 11 12 13 12 11
6 6 8 4 5 7 10 10 11 5 3 3 3 6 5 5 14 12 11 6 18 13 12 6 5 8 9 11 14 7 8 2 4 5 6 5 5 9 3 1 3 10 12 10 10
4 7 4 3 7 4 9 7 3 6 4 5 3 8 9 5 8 13 10 10 8 11 10 7 5 10 11 3 6 5 9 9 8 11 5 7 5 9 4 3 2 2 3 6 8
5 6 3 5 6 8 5 9 7 6 6 3 5 4 6 5 4 8 5 2 4 10 10 9 5 8 7 6 4 9 8 5 5 0 7 7 5 8 4 3 4 4 5 6 5
5 4 5 6 2 8 5 9 8 4 7 6 6 4 8 7 4 3 6 3 3 7 5 6 5 13 12 14 14 10 13 12 9 6 9 9 5 8 2 3 5 5 5 5 6
4 2 4 2 6 6 6 0 5 4 5 2 5 10 1 5 7 4 3 6 5 5 4 6 13 9 2 0 9 15 16 14 12 7 8 6 7 6 3 5 6 5 4 6 9
5 4 2 3 5 6 6 7 6 1 3 5 7 3 3 6 3 8 9 3 1 6 7 5 6 8 4 6 11 12 13 13 8 8 3 3 4 3 3 2 2 2 4 8 9
1 1 6 2 4 6 4 1 2 3 2 7 5 6 6 4 5 5 5 4 4 2 6 6 7 8 8 8 11 12 14 13 10 9 6 8 6 1 3 1 2 4 5 7 9
Wind_Direction
347 342 340 338 335 332 327 324 321 324 325 324 327 319 315 315 289 214 229 76 155 160 220 167 190 174 189 204 240 260 239 156 120 183 126 142 156 120 103 126 100 85 85 122 140
345 341 335 335 336 327 324 321 321 323 322 321 325 315 305 308 268 224 101 139 184 166 183 182 174 177 175 193 206 256 171 77 40 69 124 129 224 129 178 135 124 110 118 131 144
343 338 334 333 330 324 321 319 319 319 321 320 323 310 297 296 256 92 140 158 162 186 229 225 167 193 181 209 165 181 88 84 79 77 297 133 175 124 199 142 137 145 147 150 155
342 338 335 330 326 322 321 315 319 317 321 316 314 301 291 249 68 93 171 194 203 210 201 189 192 188 171 185 154 201 79 49 74 104 164 181 89 155 339 79 108 139 157 155 164
337 334 334 325 322 322 321 316 318 314 316 308 304 295 262 228 81 93 154 172 184 187 214 205 192 180 170 150 159 183 111 118 90 161 171 144 187 34 117 90 130 135 156 164 167
334 329 327 325 322 323 320 317 317 311 306 293 285 288 255 231 72 124 162 172 199 203 200 211 195 249 135 143 235 138 160 127 140 144 150 217 134 231 94 116 132 147 159 166 173
333 327 326 325 323 322 319 322 316 309 294 266 247 255 249 22 64 156 182 204 202 213 189 161 154 228 156 149 125 164 179 163 184 171 140 236 185 152 103 139 135 147 156 160 179
331 325 325 324 324 322 322 321 317 320 258 207 210 256 270 78 21 179 188 193 193 215 308 198 282 245 268 89 168 188 211 178 150 176 136 239 115 101 124 168 144 151 151 169 179
330 325 326 325 323 323 323 317 302 304 182 175 221 258 151 143 212 175 199 181 176 195 174 251 241 268 187 208 185 198 197 203 161 203 155 240 90 102 139 171 151 153 164 169 165
329 328 325 322 323 323 321 295 188 213 206 223 255 244 174 113 123 155 185 201 183 169 163 211 213 215 210 218 202 184 215 179 160 167 213 192 99 120 134 170 172 169 182 181 180
332 329 325 323 324 326 319 217 237 178 234 286 316 311 171 254 174 187 181 189 193 198 204 203 222 211 196 214 17 181 189 175 115 149 225 217 117 143 149 184 193 199 194 187 197
329 329 327 325 324 318 278 40 53 346 298 265 243 257 268 283 186 186 186 206 199 207 191 202 230 207 217 185 198 202 197 172 134 157 247 181 184 182 225 224 232 226 211 193 189
327 328 329 325 321 301 339 61 354 314 257 280 218 227 204 192 212 185 196 210 210 219 207 234 193 157 177 183 197 210 207 179 178 153 171 190 207 203 196 233 238 229 203 188 218
328 330 333 325 294 345 286 4 325 286 271 132 192 188 170 196 211 210 201 203 211 224 208 227 165 197 202 198 214 183 206 188 152 188 188 217 246 181 195 225 233 226 199 192 175
326 328 330 324 316 304 2 324 326 234 279 67 136 79 156 184 123 181 196 208 233 200 208 172 186 201 202 199 199 95 176 174 178 210 196 174 260 108 159 236 228 226 198 187 143
320 322 338 217 255 279 308 308 236 236 239 83 129 179 173 196 171 135 185 231 288 234 222 239 226 237 195 114 190 131 129 143 194 183 219 176 253 211 140 159 204 205 195 179 161
319 315 314 298 307 324 302 250 238 249 35 81 21 193 208 180 168 182 186 198 206 198 207 198 201 182 185 127 150 165 163 164 198 201 245 136 215 296 86 228 242 178 176 173 174
321 311 200 267 294 318 265 203 243 294 268 359 312 270 229 205 198 185 192 201 215 249 202 194 170 177 191 201 179 196 195 230 211 218 200 144 235 125 23 330 189 174 158 166 179
311 298 271 268 273 253 247 211 246 235 5 331 300 252 195 209 244 197 208 210 203 215 252 207 158 144 205 172 185 159 214 5 304 251 284 181 149 175 181 153 156 165 175 189 197
313 296 257 360 199 216 235 231 246 276 355 306 297 314 251 190 200 205 181 202 211 225 234 219 145 181 140 150 76 214 145 185 218 240 249 160 265 113 153 164 173 183 198 204 215
264 273 105 181 229 221 229 220 242 227 283 277 331 320 298 242 209 196 203 195 205 193 212 255 267 158 168 204 178 164 186 237 3 333 295 232 168 65 95 46 238 213 216 228 237
288 243 106 230 230 212 231 212 244 230 221 253 295 293 277 301 221 218 214 221 202 173 191 202 269 175 189 73 340 241 205 188 232 162 237 331 77 102 74 40 20 13 335 352 334
272 286 141 256 246 209 194 232 233 230 241 242 238 245 304 298 280 222 209 110 199 197 210 175 202 166 161 162 167 199 172 183 103 78 181 247 123 129 109 100 69 22 12 339 354
275 261 178 213 300 298 221 220 222 199 247 245 263 275 285 287 214 248 197 138 184 216 6 229 199 232 208 204 174 181 179 186 187 205 166 229 104 169 149 344 7 29 2 19 38
227 84 358 193 169 256 261 2 219 223 222 239 237 231 31 306 306 241 212 164 147 159 165 210 209 226 339 358 200 196 178 180 202 212 230 146 226 103 19 358 7 354 31 61 64
299 313 182 287 282 238 170 219 256 250 266 195 240 125 260 167 322 311 334 288 52 173 176 196 176 190 177 196 202 201 185 185 184 175 189 206 205 59 21 333 11 44 73 86 79
109 226 275 135 205 230 176 234 191 334 213 267 317 304 246 110 310 320 315 347 343 249 160 192 157 196 185 193 186 198 189 188 172 179 213 214 74 137 232 203 139 103 75 88 91